Regional Weather Roundup
Issued by NWS Charleston, WV

Home | Current Version | Previous Version | Graphics & Text | Print | Product List | Glossary On
Versions: 1 2 3 4 5 6 7 8 9 10 11 12 13 14 15 16 17 18 19 20 21 22 23 24 25 26 27 28 29 30 31 32 33 34 35 36 37 38 39 40 41 42 43 44 45 46 47 48 49 50
000
ASUS41 KRLX 031110
RWRRLX
West Virginia Regional Weather Roundup
National Weather Service Charleston WV
700 AM EDT MON AUG 03 2015

Note: "fair" indicates few or no clouds below 12,000 feet with no
significant weather and/or obstructions to visibility.

WVZ003-031200-
Northern Panhandle of West Virginia

CITY           SKY/WX    TMP DP  RH WIND       PRES   REMARKS
WHEELING       PTCLDY    66  60  81 W7        29.91R
$$

WVZ009-031200-
Northwest West Virginia

CITY           SKY/WX    TMP DP  RH WIND       PRES   REMARKS
PARKERSBURG    MOCLDY    65  60  84 NW7       29.97R
$$

WVZ006-031200-
Western West Virginia

CITY           SKY/WX    TMP DP  RH WIND       PRES   REMARKS
HUNTINGTON     PTCLDY    63  62  97 VRB3      29.96R
$$

WVZ015-031200-
West Central West Virginia

CITY           SKY/WX    TMP DP  RH WIND       PRES   REMARKS
CHARLESTON     PTCLDY    62  60  93 CALM      29.94R
$$

WVZ022-031-031200-
North Central West Virginia

CITY           SKY/WX    TMP DP  RH WIND       PRES   REMARKS
CLARKSBURG     MOCLDY    61  58  90 CALM      29.92R
MORGANTOWN     PTCLDY    65  57  75 CALM      29.94S
$$

WVZ025-035-042-045-031200-
Southern West Virginia

CITY           SKY/WX    TMP DP  RH WIND       PRES   REMARKS
BECKLEY        CLEAR     61  54  77 CALM      30.00R
LOGAN            N/A     63  59  88 CALM      29.92R
BLUEFIELD      PTCLDY    67  54  63 W5        30.02R
LEWISBURG      FOG       56  54  93 CALM      29.99S VSB 1/2
$$

WVZ047-031200-
Northern Mountains of West Virginia

CITY           SKY/WX    TMP DP  RH WIND       PRES   REMARKS
ELKINS         CLEAR     55  53  93 CALM      29.96S
$$

WVZ052-031200-
Eastern Panhandle of West Virginia

CITY           SKY/WX    TMP DP  RH WIND       PRES   REMARKS
MARTINSBURG    CLEAR     63  59  87 S3        29.87R
PETERSBURG     CLEAR    N/A N/A N/A CALM      29.90R HAZE
$$



USA.gov is the U.S. government's official web portal to all federal, state and local government web resources and services.